星链-4385 (STARLINK-4385 )

导读

STARLINK-4385是美国SpaceX公司星链(Starlink)卫星互联网项目的卫星,于2022年7月22日发射入轨。它属于星链低轨卫星星座的一员,运行在近地轨道,为全球偏远地区提供高速低延迟宽带互联网服务。作为星链计划扩容的组成部分,它助力星座组网,但也引发了天文观测干扰、太空轨道拥堵等争议。

基本信息
目录编号:
53198
目录名称:
STARLINK-4385
国际标识:
2022-084K
轨道中心:
EARTH
卫星名称:
星链-4385
卫星全名:
星链-4385 (STARLINK-4385 )
卫星状态:
在轨 (已飞行1506 天)
发射日期:
2022-07-22 UTC
国别 :
美国 (US)
星等 :
--
轨道信息
数据来源 国际轨道数据
星历时间: 2026-09-05T14:00:02+0800
10小时前
查看轨道信息
半长轴: 6860.102km
偏心率: 0.0002389
轨道倾角: 97.282°
近地点辐角 89.967°
升交点赤经 303.248°
平近点角 87.609°
近地点: 480.326km
远地点: 483.604km
周期: 94.244分钟
每日圈数: 15.279422
详细信息
固有亮度:
5
最大亮度:
2.5
卫星平台:
Starlink v1.5
覆盖范围:
全球
运营商:
太空探索技术公司
运营商所在国:
美国
制造商(研发单位):
太空探索技术公司
制造商所在国:
美国
使用方式:
暂无
卫星简介
星链(Starlink)计划是由太空探索技术公司(SpaceX)提出的一个巨型低轨卫星互联网星座项目,计划在2019年至2024年间在太空搭建由约1.2万颗卫星组成的“星链”网络,其中1584颗将部署在地球上空550千米处的近地轨道,并从2020年开始工作。该卫星仍在工作。
2D轨道图
3D轨道图
轨道高度分析图
轨道倾角分析图
轨道综合分析图
查看轨道综合分析图